Weather History for KNBC - April, 2013

Change the Weather History Date:

Monday, April 8, 2013

  Actual Average Record
Temperature  
Mean Temperature 65 °F -  
Max Temperature 79 °F 74 °F 88 °F (1999)
Min Temperature 51 °F 52 °F 33 °F (1971)
Growing Degree Days 15 (Base 50)    
Moisture  
Dew Point 55 °F    
Average Humidity 86    
Maximum Humidity 100    
Minimum Humidity 50    
Precipitation  
Precipitation 0.01 in - - ()
Sea Level Pressure  
Sea Level Pressure 30.15 in    
Wind  
Wind Speed 1 mph (South)    
Max Wind Speed 12 mph    
Max Gust Speed 16 mph    
Visibility 5 miles    
Events Fog    
Averages and records for this station are not official NWS values.
T = Trace of Precipitation, MM = Missing Value Source: NWS Daily Summary

Daily Weather History Graph

Daily Weather History Graph

Search for Another Location

Airport or City:

Trip Planner

Search our weather history database for the weather conditions in past years. The results will help you decide how hot, cold, wet, or windy it might be!

Date:

Astronomy

Apr. 08, 2013 Rise Set
Actual Time 7:01 AM EDT 7:47 PM EDT
Civil Twilight 6:36 AM EDT 8:12 PM EDT
Nautical Twilight 6:07 AM EDT 8:42 PM EDT
Astronomical Twilight 5:37 AM EDT 9:12 PM EDT
Moon 5:46 AM EDT (4/8) 6:23 PM EDT (4/8)
Length of Visible Light 13h 36m
Length of Day
12h 46m
Waning Crescent, 3% of the Moon is Illuminated
Apr 8
Waning Crescent
Apr 10
New
Apr 18
First Quarter
Apr 25
Full
May 2
Last Quarter

Hourly Weather History & Observations

Time (EDT) Temp. Dew Point Humidity Pressure Visibility Wind Dir Wind Speed Gust Speed Precip Events Conditions
12:02 AM 57.2 °F 53.6 °F 88% 30.17 in 2.5 mi Calm Calm - N/A   Partly Cloudy
12:09 AM 57.2 °F 55.4 °F 94% 30.17 in 8.0 mi Calm Calm - N/A   Partly Cloudy
12:56 AM 57.0 °F 54.0 °F 89% 30.16 in 10.0 mi Calm Calm - N/A   Clear
1:56 AM 55.9 °F 54.0 °F 93% 30.15 in 1.5 mi Calm Calm - N/A   Clear
2:01 AM 55.4 °F 53.6 °F 94% 30.15 in 2.0 mi Calm Calm - N/A   Clear
2:12 AM 55.4 °F 53.6 °F 94% 30.14 in 1.2 mi Calm Calm - N/A   Partly Cloudy
2:17 AM 55.4 °F 53.6 °F 94% 30.14 in 0.5 mi Calm Calm - N/A Fog Fog
2:27 AM 55.4 °F 53.6 °F 94% 30.14 in 0.8 mi Calm Calm - N/A   Mist
2:35 AM 55.4 °F 53.6 °F 94% 30.13 in 0.5 mi Calm Calm - N/A Fog Fog
2:56 AM 55.0 °F 53.1 °F 93% 30.13 in 0.5 mi Calm Calm - N/A Fog Fog
3:11 AM 53.6 °F 53.6 °F 100% 30.13 in 0.8 mi Calm Calm - N/A   Mist
3:15 AM 53.6 °F 53.6 °F 100% 30.13 in 1.5 mi Calm Calm - N/A   Mostly Cloudy
3:23 AM 53.6 °F 51.8 °F 94% 30.13 in 0.8 mi Calm Calm - N/A   Mist
3:56 AM 54.0 °F 52.0 °F 93% 30.13 in 0.5 mi Calm Calm - N/A Fog Fog
4:02 AM 53.6 °F 51.8 °F 94% 30.13 in 0.8 mi Calm Calm - N/A   Mist
4:06 AM 53.6 °F 51.8 °F 94% 30.13 in 2.0 mi Calm Calm - N/A   Overcast
4:14 AM 53.6 °F 51.8 °F 94% 30.13 in 6.0 mi Calm Calm - N/A   Overcast
4:22 AM 51.8 °F 51.8 °F 100% 30.13 in 5.0 mi Calm Calm - N/A   Overcast
4:29 AM 53.6 °F 51.8 °F 94% 30.13 in 0.2 mi Calm Calm - N/A Fog Fog
4:41 AM 53.6 °F 51.8 °F 94% 30.13 in 0.2 mi Calm Calm - 0.01 in Fog Fog
4:56 AM 53.1 °F 52.0 °F 96% 30.14 in 0.8 mi Calm Calm - 0.01 in   Mist
5:00 AM 53.6 °F 51.8 °F 94% 30.13 in 1.2 mi Calm Calm - N/A   Overcast
5:03 AM 53.6 °F 51.8 °F 94% 30.14 in 3.0 mi Calm Calm - N/A   Overcast
5:10 AM 53.6 °F 51.8 °F 94% 30.14 in 0.5 mi Calm Calm - N/A Fog Fog
5:13 AM 53.6 °F 51.8 °F 94% 30.14 in 0.2 mi Calm Calm - N/A Fog Fog
5:26 AM 53.6 °F 51.8 °F 94% 30.14 in 0.8 mi Calm Calm - N/A   Overcast
5:32 AM 53.6 °F 53.6 °F 100% 30.14 in 2.5 mi Calm Calm - N/A   Overcast
5:51 AM 53.6 °F 53.6 °F 100% 30.14 in 5.0 mi Calm Calm - N/A   Overcast
5:56 AM 54.0 °F 52.0 °F 93% 30.15 in 8.0 mi Calm Calm - N/A   Overcast
6:58 AM 53.6 °F 51.8 °F 94% 30.16 in 1.5 mi Calm Calm - N/A   Overcast
7:01 AM 53.6 °F 51.8 °F 94% 30.16 in 0.5 mi Calm Calm - N/A Fog Fog
7:09 AM 55.4 °F 53.6 °F 94% 30.17 in 0.2 mi Calm Calm - N/A Fog Fog
7:20 AM 55.4 °F 53.6 °F 94% 30.17 in 7.0 mi Calm Calm - N/A   Scattered Clouds
7:56 AM 57.0 °F 55.9 °F 96% 30.19 in 7.0 mi Calm Calm - N/A   Scattered Clouds
8:56 AM 63.0 °F 57.9 °F 84% 30.19 in 10.0 mi Calm Calm - N/A   Clear
9:56 AM 69.1 °F 57.9 °F 68% 30.20 in 10.0 mi South 3.5 mph - N/A   Scattered Clouds
10:56 AM 71.1 °F 60.1 °F 68% 30.20 in 10.0 mi SSE 6.9 mph - N/A   Partly Cloudy
11:56 AM 75.0 °F 60.1 °F 60% 30.20 in 10.0 mi South 5.8 mph - N/A   Partly Cloudy
12:56 PM 77.0 °F 60.1 °F 56% 30.18 in 10.0 mi SSE 8.1 mph - N/A   Clear
1:56 PM 77.0 °F 60.1 °F 56% 30.17 in 10.0 mi SSE 6.9 mph - N/A   Partly Cloudy
2:56 PM 79.0 °F 59.0 °F 50% 30.15 in 10.0 mi South 8.1 mph - N/A   Clear
3:56 PM 75.9 °F 57.0 °F 52% 30.14 in 10.0 mi SSE 11.5 mph 16.1 mph N/A   Clear
4:56 PM 75.9 °F 57.9 °F 54% 30.13 in 10.0 mi South 6.9 mph - N/A   Partly Cloudy
5:56 PM 75.0 °F 55.9 °F 51% 30.13 in 10.0 mi South 9.2 mph - N/A   Scattered Clouds
6:56 PM 73.0 °F 59.0 °F 61% 30.14 in 10.0 mi South 5.8 mph - N/A   Mostly Cloudy
7:56 PM 69.1 °F 60.1 °F 73% 30.14 in 10.0 mi SSE 6.9 mph - N/A   Clear
8:56 PM 66.9 °F 60.1 °F 79% 30.15 in 10.0 mi SSE 6.9 mph - N/A   Clear
9:56 PM 66.9 °F 61.0 °F 81% 30.16 in 10.0 mi South 4.6 mph - N/A   Clear
10:56 PM 66.0 °F 61.0 °F 84% 30.17 in 10.0 mi SSE 5.8 mph - N/A   Clear
11:56 PM 64.9 °F 62.1 °F 90% 30.17 in 10.0 mi South 3.5 mph - N/A   Clear